Regional Weather Roundup
Issued by NWS

Home | Current Version | Previous Version | Graphics & Text | Print | Product List | Glossary On
Versions: 1 2 3 4 5 6 7 8 9 10 11 12 13 14 15 16 17 18 19 20 21 22 23 24 25 26 27 28 29 30 31 32 33 34 35 36 37 38 39 40 41 42 43 44 45 46 47 48 49 50
000
ASUS43 KTOP 272308
RWRKS

WEATHER ROUNDUP FOR KANSAS
NATIONAL WEATHER SERVICE GOODLAND KS
600 PM CDT MON MAR 27 2017

NOTE:  "FAIR" INDICATES FEW OR NO CLOUDS BELOW 12,000 FEET WITH NO
SIGNIFICANT WEATHER AND/OR OBSTRUCTIONS TO VISIBILITY.

KSZ001>006-013>018-027>032-041>047-280000-
NORTHWEST KANSAS

CITY           SKY/WX    TMP DP  RH WIND       PRES   REMARKS
GOODLAND       CLOUDY    64  33  31 SE10      29.85S
HAYS             N/A     62  41  46 NE7       29.89F
HILL CITY      CLOUDY    62  44  51 E10       29.89S
RUSSELL        CLOUDY    60  42  51 E9        29.89S
$$

KSZ061>065-074>080-084>089-280000-
SOUTHWEST KANSAS

CITY           SKY/WX    TMP DP  RH WIND       PRES   REMARKS
DODGE CITY     SUNNY     66  37  34 S6        29.88F
ELKHART          N/A     66  35  31 SE12        N/A
GARDEN CITY    SUNNY     67  32  27 S7        29.86F
GREAT BEND     CLOUDY    61  44  53 E8        29.90S
LIBERAL        SUNNY     70  34  26 SE13      29.86F
PRATT          SUNNY     60  37  41 NE8       29.91S
$$

KSZ066>073-081>083-090>101-280000-
SOUTHEAST KANSAS

CITY           SKY/WX    TMP DP  RH WIND       PRES   REMARKS
CHANUTE        CLOUDY    55  47  74 NW9       29.93R
COFFEYVILLE    CLOUDY    57  48  72 N8        29.92F
HUTCHINSON     CLOUDY    54  46  74 NE5       29.93F
MEDICINE LODGE   N/A     65  41  41 E9        29.89F
NEWTON         CLOUDY    53  47  79 NE7       29.94S
PARSONS        CLOUDY    56  48  74 N9        29.93S
WICHITA INTL   CLOUDY    53  46  77 NE9       29.92F
WICHITA JABRA  CLOUDY    53  46  77 E7        29.92F
WICHITA MCCONL CLOUDY    54  46  74 NE8       29.92F
WINFIELD       CLOUDY    55  47  74 N7        29.93F
$$

KSZ007>012-019>026-033>040-048>060-102>105-280000-
NORTHEAST KANSAS

CITY           SKY/WX    TMP DP  RH WIND       PRES   REMARKS
CONCORDIA      CLOUDY    53  46  77 E6        29.93S
EMPORIA        CLOUDY    55  48  77 NE6       29.92S
LAWRENCE       PTSUNNY   58  48  69 N9        29.92F
MANHATTAN      CLOUDY    56  46  69 NE8       29.93S
MARYSVILLE     CLOUDY    52  45  76 NE5       29.94S
OLATHE IND     CLOUDY    53  47  79 N9        29.92F
OLATHE EXE     CLOUDY    51  47  86 N8        29.92S
SALINA         CLOUDY    55  46  71 E5        29.94S
TOPEKA BILLARD CLOUDY    57  49  74 N9        29.92S
TOPEKA FORBES  CLOUDY    58  48  69 N8        29.92S
$$



USA.gov is the U.S. government's official web portal to all federal, state and local government web resources and services.